Location: Coatesville
(39.9830°N, 75.8240°W)
Time: 11:59:37
(UTC-04:00)

OTV 5 (USA 277) - Visible Passes

Search period start: 19 October 2019 00:00
Search period end: 29 October 2019 00:00
Orbit: 310 x 324 km, 54.5° (Epoch: 17 October)

Date Brightness Start Highest point End Pass type
(mag) Time Alt. Az. Time Alt. Az. Time Alt. Az.
19 Oct ? 05:23:09 19° NE 05:23:09 19° NE 05:25:01 10° E visible
20 Oct ? 05:37:48 42° NE 05:37:48 42° NE 05:40:18 10° ESE visible
21 Oct ? 05:52:34 51° S 05:52:34 51° S 05:54:54 10° SE visible
22 Oct ? 06:07:29 16° SSW 06:07:29 16° SSW 06:08:37 10° S visible
26 Oct ? 20:12:54 10° SW 20:12:58 11° SW 20:12:58 11° SW visible
27 Oct ? 18:54:29 10° SSE 18:56:07 15° SE 18:56:48 14° ESE visible
27 Oct ? 20:27:42 10° WSW 20:27:42 10° WSW 20:27:42 10° WSW visible
28 Oct ? 19:07:52 10° SSW 19:10:28 43° SE 19:11:24 29° E visible
